Regional Weather Roundup
Issued by NWS

Home | Current Version | Previous Version | Text Only | Print | Product List | Glossary On
Versions: 1 2 3 4 5 6 7 8 9 10 11 12 13 14 15 16 17 18 19 20 21 22 23 24 25 26 27 28 29 30 31 32 33 34 35 36 37 38 39 40 41 42 43 44 45 46 47 48 49 50
491
ASUS45 KBOU 220507
RWRCO

WEATHER ROUNDUP FOR COLORADO
NATIONAL WEATHER SERVICE DENVER/BOULDER CO
1100 PM MDT SUN MAY 21 2017

NOTE: "FAIR" INDICATES FEW OR NO CLOUDS BELOW 12000 FEET WITH NO
SIGNIFICANT WEATHER AND/OR OBSTRUCTIONS TO VISIBILITY.

COZ001>005-013-030-031-220600-
...NORTHWEST COLORADO...

CITY           SKY/WX    TMP DP  RH WIND       PRES   REMARKS
CRAIG          CLOUDY    46  40  79 N5        30.28R
HAYDEN         CLOUDY    45  36  70 S5        30.29R
MEEKER         CLOUDY    46  42  86 E5        30.28S
RABBIT EARS PA CLOUDY    32  30  93 E6        30.38S WCI  26
STEAMBOAT SPGS CLOUDY    43  38  84 CALM      30.29S
WALDEN           N/A     36  34  93 CALM      30.35F
$$

COZ006>008-011-220600-
...WEST CENTRAL VALLEYS...

CITY           SKY/WX    TMP DP  RH WIND       PRES   REMARKS
GRAND JUNCTION CLOUDY    57  40  52 N5        30.21R
MONTROSE       CLOUDY    52  40  63 SE8       30.25S
EAGLE          LGT RAIN  47  40  76 SE15      30.29R
RIFLE          MOCLDY    55  39  54 NW7       30.24R
DELTA          CLOUDY    59  38  46 CALM      30.21R
NUCLA          FAIR      50  41  71 NE3       30.27R
$$

COZ017>023-064>068-220600-
...SOUTHWEST COLORADO...

CITY           SKY/WX    TMP DP  RH WIND       PRES   REMARKS
DURANGO        FAIR      50  32  50 CALM      30.21R
CORTEZ         FAIR      51  38  60 N3        30.21R
PAGOSA SPRINGS FAIR      48  28  46 N3        30.25R
TELLURIDE      FAIR      37  36  95 E5        30.36F
WOLF CREEK PAS FAIR      32  23  69 SW6       30.46F WCI  26
$$

COZ009-010-012-014-032>034-037-058>063-220600-
...CENTRAL COLORADO...

CITY           SKY/WX    TMP DP  RH WIND       PRES   REMARKS
ASPEN          CLOUDY    42  39  89 SW3       30.29F
BUENA VISTA    CLOUDY    46  37  70 NE9       30.28S
COPPER MTN     LGT SNOW  34  30  86 CALM      30.42F VSB 3/4
BERTHOUD PASS  HVY SNOW  23  14  68 NW7G16    30.43S VSB 1/4 WCI  15
COTTONWOOD PAS DRIZZLE   43  32  65 CALM      30.35S
GUNNISON       LGT RAIN  44  40  85 SW5       30.31R
KREMMLING      LGT RAIN  45  37  76 CALM      30.34S
LEADVILLE      CLOUDY    37  28  70 N6        30.33R
MONARCH PASS   FLURRIES  32  28  86 W18       30.52F WCI  20
SALIDA         CLOUDY    52  36  53 SE13G20   30.33R
SUNLIGHT       CLOUDY    32  30  93 W8G16     30.42S FOG     WCI  25
WILKERSON PASS SNOW      32  30  93 SE3       30.42F VSB<1/4
$$

COZ069>075-220600-
...SAN LUIS VALLEY/SANGRE DE CRISTO MOUNTAINS...

CITY           SKY/WX    TMP DP  RH WIND       PRES   REMARKS
ALAMOSA        FAIR      50  33  52 N17       30.22S
DEL NORTE      CLOUDY    48  31  51 SE6       30.26R
LA VETA PASS   FAIR      36  30  80 N12G21    30.47S
SAGUACHE       CLOUDY    45  36  70 NW13      30.26S
$$

COZ035-036-038>040-220600-
...NORTHERN COLORADO FRONT RANGE...

CITY           SKY/WX    TMP DP  RH WIND       PRES   REMARKS
DENVER INTL AP LGT RAIN  48  44  86 W6        30.27R
DMNS CITY PARK   N/A     48  46  93 W7        30.30R
AURORA         CLOUDY    47  46  97 W3        30.28R
FRONT RANGE AP NOT AVBL
ERIE MUNI ARPT RAIN      48  46  92 S5        30.28R
BOULDER MUN AP RAIN      46  45  93 SW7       30.28R
CENTENNIAL     CLOUDY    48  44  86 N6        30.28R
BROOMFIELD     NOT AVBL
FORT COLLINS   FAIR      49  44  83 W5        30.27R
LONGMONT       LGT RAIN  51  48  89 SW9       30.28S
$$

COZ041-046-047-076>085-087-088-220600-
...PIKES PEAK/PALMER DIVIDE AND SOUTHERN FOOTHILLS...

CITY           SKY/WX    TMP DP  RH WIND       PRES   REMARKS
COLO. SPRINGS  CLOUDY    51  41  68 N13       30.27S
A. F. ACADEMY  CLOUDY    47  40  76 N10       30.27S
SCHRIEVER AFB  MOCLDY    48  40  74 N17G24    30.25F
CHEYENNE MTN   LGT RAIN  45  40  82 NW18      30.23
ELLICOTT       MOCLDY   N/A N/A N/A NE13      30.24S
FALCON         CLOUDY    45  42  89 N9        30.29S
FORT CARSON    CLOUDY    52  40  64 N16       30.24S
LIMON          CLOUDY    48  45  89 N9        30.25R
MONUMENT HILL  CLOUDY    41  39  93 N6        30.32S
CANON CITY     NOT AVBL
WALSENBURG     CLOUDY    55  45  67 N5        30.21S
TRINIDAD       MOCLDY    53  41  63 CALM      30.18R
$$

COZ042>045-048>051-090-091-220600-
...NORTHEAST COLORADO...

CITY           SKY/WX    TMP DP  RH WIND       PRES   REMARKS
GREELEY ARPT   FAIR      50  46  86 SW6       30.26R
AKRON          CLOUDY    50  46  86 SW3       30.22S
BURLINGTON     HVY RAIN  50  49  96 N9        30.22F FOG
WRAY           CLOUDY    52  50  93 W3        30.19F
YUMA           CLOUDY    50  41  71 W6        30.20S
STERLING       FAIR      46  45  93 NW3       30.20S
HOLYOKE        NOT AVBL
FORT MORGAN    CLOUDY    48  46  92 W3        30.24R
$$

COZ086-089-092>099-220600-
...SOUTHEAST COLORADO...

CITY           SKY/WX    TMP DP  RH WIND       PRES   REMARKS
PUEBLO         LGT RAIN  57  43  59 N20G26    30.20R
LA JUNTA       MOCLDY    58  49  72 E6        30.14R
LAMAR          MOCLDY    52  48  86 NE6       30.13R
SPRINGFIELD      N/A     53  48  83 S16       30.16S
$$




USA.gov is the U.S. government's official web portal to all federal, state and local government web resources and services.